Location: Estes Par
(40.3770°N, 105.5210°W)
Time: 06:06:13
(UTC-06:00)

Envisat - Pass Details

Date: 16 October 2017
Orbit: 764 x 766 km, 98.2° (Epoch: 22 October)

Event Time Altitude Azimuth Distance (km) Brightness Sun altitude
Exits shadow 22:06:42 14° 300° (WNW) 2,046 5.8 -42.8°
Drops below altitude 10° 22:07:49 10° 311° (NW) 2,303 6.1 -43.0°
Sets 22:10:51 0° 330° (NNW) 3,234 6.9 -43.4°
